{"data":{"norad_id":68036,"intl_designator":"2026-040X","name":"STARLINK-36906","alt_names":[],"object_type":"PAYLOAD","status":"ACTIVE","operator":null,"country":"US","launch_date":"2026-03-01","launch_site_code":"AFWTR","launch_vehicle":null,"mission":null,"orbit_class":"UNKNOWN","rcs_meters":null,"size_class":null,"mass_kg":null,"dimensions":null,"purposes":["comms"],"wikipedia_slug":null,"has_3d_model":false,"image_url":null,"decayed_at":null,"tle_current":{"epoch":"2026-09-20T03:09:26.993088Z","epoch_age_seconds":91515,"freshness":"FRESH","line1":"1 68036U 26040X   26263.13156242  .00012406  00000+0  38604-3 0  9994","line2":"2 68036  97.2856 210.5070 0001289  79.2013 280.9375 15.33440299 31265","mean_motion":15.33440299,"eccentricity":0.0001289,"inclination_deg":97.2856,"raan_deg":210.507,"arg_perigee_deg":79.2013,"mean_anomaly_deg":280.9375,"bstar":0.00038604,"rev_number":3126,"period_min":93.906492540927,"perigee_km":464.67500920503,"apogee_km":466.43931355983,"semimajor_km":6843.6941613824,"source":"CELESTRAK","updated_at":"2026-09-20T09:00:43.745825Z"}}}